User: anonymous   Login
Location: Unspecified
(0.0000°N, 0.0000°E)
Time: 07:57:19
(UTC+00:00)
Language:

Aussat K3 - Orbit

View from above orbital plane
View from above orbital plane
View from above satellite
View from above satellite

Ground track
Ground track

The orbit data is extracted from the following two-line orbital elements,

1 18350U 87078A   16142.42404421 -.00000199  00000-0  00000+0 0  9991
2 18350  14.4012  22.2248 0005908 270.3771 277.5387  0.98908862104138
Epoch (UTC): 21 May 2016 10:10:37
Eccentricity: 0.0005908
inclination: 14.4012°
perigee height: 36147 km
apogee height: 36198 km
right ascension of ascending node: 22.2248°
argument of perigee: 270.3771°
revolutions per day: 0.98908862
mean anomaly at epoch: 277.5387°
orbit number at epoch: 10413

The dashed part of the orbit path shows where the satellite is in the earth's shadow,  

DLR